IRIDIUM 33 DEB

Satellite information

Favourite Embed

Satellite Type and Status

DEBRISIN ORBIT

Key statistics

Satellite IRIDIUM 33 DEB at a glance.

Uptime

10267

Days in orbit

Revolutions

≈ 14.4

Per day

Orbit

LEO

Low Earth Orbit

Inclination

86.4

Latest

Satellite identification and parameters

Extended collection of information and parameters for IRIDIUM 33 DEB.

Object identification

Identified? True

Debris? True

Object name: IRIDIUM 33 DEB

International designator: 1997-051P

Object number (NORAD): 33776

Object ID (CCSDS): 33776

Country: UNITED STATES OF AMERICA (US)

Current information (Y/N): Y

RCS size: MEDIUM

Orbital parameters

Period: 100.133 minutes

Inclination: 86.3994 deg

SMA: 7142.941 km

Apoapsis: 775.318 km

Periapsis: 754.293 km

RAAN: 101.6973 deg

Eccentricy: 0.0014717

Argument of periapsis: 9.5879 deg

Mean anomaly: 107.2173 deg

Mean motion: 14.38093765 rev/day

Mean motion (dot): 0.00001269 rev/day2

B* drag term: 0.0004122029 1/REarth

Two-line elements (TLE)

Creation date: Oct. 24, 2025, 2:48 a.m.

Reference frame: TEME

Reference center: EARTH

Epoch: Oct. 23, 2025, 10:17 p.m. UTC

TLE line 0: 0 IRIDIUM 33 DEB

TLE line 1: 1 33776U 97051P 25296.92915875 .00001269 00000-0 41220-3 0 9998

TLE line 2: 2 33776 86.3994 101.6973 0014717 9.5879 107.2173 14.38093765873669

Live tracking on map

Real-time ground track for satellite IRIDIUM 33 DEB.

In-orbit conjunctions

A list of the most updated potential collisions computed for object IRIDIUM 33 DEB.

Target Orbit TCA Probability of collision Miss distance Type
FENGYUN 1C DEB SSO 2025-10-24 09:57:28 0.0001859248 67.0 (m) DEBRIS
CZ-6A DEB LEO 2025-09-29 17:46:10 0.0004170922 78.0 (m) DEBRIS
NOAA 16 DEB SSO 2025-07-22 06:39:14 0.0001324744 62.0 (m) DEBRIS

Associated space launch

Iridium provides global mobile telecommunications services using a constellation of 66 low earth orbit satellites in a 86.4° inclined orbit. Although 77 satellites were originally envisioned for the system and spawned the name based on the 77th element in the periodic table, the system has been scaled back. Motorola's Satellite Communications Group designed and manufactured the Iridium satellites with Lockheed Martin providing the LM-700A spacecraft buses.

IRIDIUM 33 DEB was lifted into orbit during the mission ‘Proton-K/17S40 | Iridium 27 to 33’, on board a Proton-K/17S40 space rocket.

The launch took place on Sept. 14, 1997, 1:36 a.m. from 81/23 (81L).

For more information about the launch, click the button.

Launch to space Proton-K/17S40 | Iridium 27 to 33
Proton-K/17S40 | Iridium 27 to 33

Agency: N/A

Status: Launch Successful

Launch date: Sept. 14, 1997, 1:36 a.m. UTC

Rocket: Proton-K/17S40

Launch pad: 81/23 (81L)

Location: Baikonur Cosmodrome, Republic of Kazakhstan

...

Latest news about this satellite

There are no fresh news available about this satellite. Check back as we update our databases every day.


Newsletter sign-up

Weekly statistics, charts and insights to help you stay on top of the space industry.